Tracking 30918 objects as of 2-Jul-2025
HD Live streaming from Space Station
objects crossing your sky now

STARLINK-30534

Track STARLINK-30534 now!
10-day predictions
STARLINK-30534 is classified as:


NORAD ID: 57992
Int'l Code: 2023-153B
Perigee: 565.3 km
Apogee: 567.2 km
Inclination: 43.0 °
Period: 95.8 minutes
Semi major axis: 6937 km
RCS: Unknown
Launch date: October 5, 2023
Source: United States (US)
Launch site: AIR FORCE EASTERN TEST RANGE (AFETR)
Your satellite tracking list
COSMOS 1383
Track 1 satellite(s)




NASA's NSSDC Master Catalog

Two Line Element Set (TLE):
1 57992U 23153B   25183.15483232  .00000107  00000-0  23023-4 0  9995
2 57992  43.0052 350.5821 0001359 264.0262  96.0426 15.02533924 97098
Source of the keplerian elements: AFSPC